QPF
0.00 0.00 0.00 0.00 0.00 0.00 0.00 0.00 0.00 0.00 0.00 0.00 0.00 0.00 0.01 0.01 0.02 0.02 0.05 0.07 0.08 0.14 0.19 0.31 0.42 0.64 0.68 0.65 0.54 0.45 0.36 0.26 0.19 0.17 0.16 0.17 0.15 0.16 0.18 0.16 0.15 0.16 0.15 0.12
0.00 0.00 0.00 0.00 0.00 0.00 0.00 0.00 0.00 0.00 0.00 0.00 0.00 0.01 0.01 0.04 0.10 0.09 0.09 0.16 0.14 0.15 0.28 0.45 0.61 0.76 0.76 0.67 0.53 0.48 0.43 0.34 0.21 0.16 0.16 0.17 0.18 0.20 0.22 0.18 0.16 0.15 0.15 0.15
0.00 0.00 0.00 0.00 0.00 0.00 0.00 0.00 0.01 0.00 0.00 0.01 0.01 0.02 0.02 0.06 0.12 0.10 0.07 0.11 0.22 0.23 0.25 0.37 0.55 0.74 0.82 0.78 0.69 0.66 0.53 0.39 0.28 0.23 0.21 0.18 0.19 0.20 0.22 0.21 0.20 0.18 0.16 0.16
0.00 0.00 0.00 0.00 0.00 0.00 0.00 0.00 0.01 0.01 0.01 0.01 0.01 0.01 0.03 0.06 0.11 0.10 0.09 0.14 0.23 0.27 0.28 0.34 0.43 0.56 0.62 0.60 0.59 0.62 0.50 0.39 0.34 0.30 0.24 0.19 0.19 0.21 0.22 0.22 0.20 0.17 0.16 0.15
0.00 0.00 0.00 0.00 0.00 0.00 0.00 0.00 0.00 0.00 0.00 0.01 0.01 0.02 0.05 0.06 0.09 0.14 0.12 0.16 0.24 0.21 0.22 0.27 0.31 0.36 0.36 0.35 0.36 0.44 0.46 0.40 0.34 0.27 0.25 0.23 0.23 0.25 0.24 0.21 0.18 0.16 0.16 0.16
0.00 0.00 0.00 0.00 0.00 0.00 0.00 0.00 0.00 0.00 0.01 0.01 0.01 0.02 0.06 0.10 0.11 0.12 0.11 0.13 0.19 0.21 0.15 0.18 0.23 0.23 0.25 0.23 0.25 0.25 0.27 0.26 0.23 0.19 0.20 0.23 0.24 0.24 0.22 0.19 0.16 0.14 0.14 0.14
0.00 0.01 0.00 0.00 0.00 0.00 0.00 0.00 0.00 0.01 0.01 0.01 0.01 0.03 0.09 0.14 0.17 0.16 0.16 0.21 0.25 0.22 0.15 0.17 0.16 0.15 0.20 0.21 0.21 0.18 0.16 0.14 0.13 0.14 0.15 0.18 0.20 0.22 0.21 0.17 0.13 0.12 0.13 0.14
0.00 0.01 0.00 0.00 0.00 0.00 0.00 0.00 0.00 0.01 0.01 0.01 0.03 0.08 0.13 0.17 0.23 0.26 0.21 0.16 0.21 0.27 0.22 0.19 0.18 0.13 0.15 0.13 0.12 0.11 0.09 0.09 0.09 0.09 0.10 0.11 0.11 0.13 0.14 0.12 0.11 0.11 0.11 0.11
0.01 0.00 0.00 0.00 0.01 0.00 0.00 0.00 0.01 0.01 0.01 0.01 0.06 0.11 0.17 0.28 0.36 0.38 0.26 0.15 0.12 0.15 0.16 0.13 0.13 0.13 0.16 0.11 0.11 0.11 0.09 0.08 0.07 0.07 0.06 0.08 0.08 0.08 0.09 0.09 0.09 0.09 0.08 0.07
0.02 0.01 0.01 0.01 0.01 0.01 0.01 0.00 0.00 0.01 0.02 0.03 0.06 0.13 0.20 0.31 0.33 0.33 0.24 0.16 0.15 0.12 0.11 0.12 0.08 0.07 0.10 0.11 0.13 0.14 0.09 0.07 0.07 0.05 0.04 0.05 0.06 0.07 0.06 0.05 0.05 0.05 0.05 0.04
0.02 0.01 0.01 0.01 0.01 0.01 0.01 0.01 0.02 0.03 0.02 0.04 0.08 0.14 0.19 0.23 0.20 0.20 0.19 0.13 0.12 0.11 0.08 0.08 0.07 0.06 0.06 0.07 0.09 0.11 0.09 0.06 0.06 0.04 0.04 0.04 0.03 0.03 0.03 0.03 0.03 0.03 0.03 0.03
0.01 0.01 0.01 0.01 0.01 0.01 0.01 0.01 0.01 0.03 0.04 0.05 0.08 0.17 0.27 0.26 0.24 0.26 0.23 0.17 0.16 0.11 0.08 0.09 0.07 0.07 0.07 0.05 0.04 0.04 0.05 0.05 0.04 0.03 0.03 0.02 0.02 0.02 0.02 0.02 0.03 0.03 0.03 0.03
0.00 0.01 0.01 0.01 0.01 0.01 0.01 0.01 0.02 0.02 0.06 0.07 0.08 0.17 0.28 0.29 0.29 0.25 0.23 0.18 0.16 0.10 0.06 0.06 0.05 0.04 0.05 0.04 0.02 0.02 0.03 0.03 0.03 0.02 0.02 0.02 0.02 0.02 0.02 0.01 0.02 0.01 0.01 0.01
0.01 0.02 0.03 0.03 0.02 0.02 0.02 0.02 0.05 0.04 0.05 0.05 0.06 0.10 0.19 0.24 0.23 0.19 0.17 0.12 0.09 0.08 0.06 0.05 0.04 0.04 0.03 0.03 0.02 0.02 0.02 0.02 0.02 0.02 0.02 0.01 0.02 0.02 0.01 0.01 0.01 0.01 0.01 0.00
0.02 0.04 0.03 0.02 0.03 0.04 0.03 0.04 0.04 0.03 0.04 0.05 0.05 0.07 0.09 0.13 0.17 0.21 0.20 0.18 0.15 0.12 0.09 0.07 0.06 0.05 0.03 0.02 0.02 0.03 0.03 0.02 0.02 0.02 0.01 0.01 0.01 0.01 0.01 0.01 0.01 0.01 0.01 0.01
0.01 0.02 0.02 0.03 0.04 0.05 0.05 0.06 0.03 0.02 0.02 0.03 0.05 0.06 0.09 0.10 0.09 0.09 0.09 0.09 0.10 0.13 0.12 0.11 0.10 0.08 0.05 0.04 0.04 0.04 0.04 0.03 0.03 0.02 0.01 0.01 0.01 0.01 0.01 0.01 0.01 0.01 0.01 0.01
0.01 0.01 0.02 0.04 0.05 0.07 0.07 0.03 0.03 0.04 0.02 0.02 0.03 0.05 0.08 0.08 0.05 0.04 0.04 0.05 0.07 0.10 0.13 0.14 0.13 0.10 0.09 0.08 0.07 0.06 0.04 0.02 0.02 0.02 0.02 0.01 0.00 0.00 0.01 0.01 0.01 0.01 0.00 0.00
0.01 0.01 0.02 0.03 0.04 0.08 0.07 0.03 0.02 0.03 0.02 0.02 0.03 0.02 0.03 0.05 0.04 0.04 0.04 0.05 0.05 0.06 0.07 0.07 0.07 0.06 0.06 0.05 0.04 0.03 0.02 0.02 0.02 0.02 0.01 0.01 0.00 0.01 0.01 0.01 0.01 0.00 0.00 0.00
0.00 0.01 0.01 0.03 0.05 0.07 0.04 0.02 0.04 0.03 0.02 0.03 0.04 0.03 0.03 0.02 0.02 0.03 0.04 0.04 0.04 0.04 0.04 0.06 0.07 0.06 0.05 0.04 0.04 0.03 0.03 0.03 0.03 0.02 0.01 0.01 0.01 0.01 0.01 0.01 0.01 0.00 0.00 0.00
0.00 0.00 0.01 0.02 0.03 0.03 0.02 0.01 0.01 0.02 0.05 0.04 0.04 0.05 0.05 0.04 0.03 0.03 0.03 0.04 0.04 0.03 0.04 0.05 0.07 0.08 0.07 0.06 0.04 0.03 0.03 0.02 0.03 0.02 0.02 0.01 0.01 0.01 0.01 0.01 0.00 0.00 0.00 0.00
0.00 0.00 0.01 0.01 0.02 0.01 0.00 0.00 0.00 0.01 0.03 0.02 0.03 0.04 0.06 0.06 0.04 0.02 0.02 0.03 0.03 0.04 0.04 0.03 0.04 0.05 0.06 0.06 0.04 0.03 0.03 0.03 0.02 0.02 0.01 0.01 0.01 0.01 0.01 0.00 0.00 0.00 0.00 0.00
0.00 0.00 0.01 0.01 0.01 0.01 0.00 0.00 0.01 0.01 0.01 0.01 0.01 0.02 0.03 0.03 0.03 0.03 0.04 0.04 0.03 0.04 0.04 0.04 0.04 0.05 0.04 0.04 0.04 0.04 0.04 0.03 0.02 0.01 0.01 0.01 0.01 0.00 0.00 0.00 0.00 0.00 0.00 0.00
0.00 0.00 0.00 0.00 0.00 0.00 0.00 0.00 0.00 0.00 0.00 0.00 0.00 0.01 0.01 0.01 0.01 0.02 0.02 0.03 0.03 0.03 0.04 0.04 0.04 0.05 0.04 0.04 0.04 0.04 0.04 0.03 0.01 0.01 0.00 0.00 0.00 0.00 0.00 0.00 0.00 0.00 0.00 0.00
0.01 0.01 0.00 0.00 0.00 0.00 0.00 0.00 0.00 0.00 0.00 0.00 0.00 0.00 0.01 0.01 0.01 0.01 0.01 0.02 0.02 0.03 0.04 0.04 0.04 0.04 0.03 0.03 0.03 0.02 0.02 0.01 0.01 0.01 0.00 0.01 0.01 0.01 0.00 0.00 0.00 0.00 0.00 0.00
0.00 0.00 0.00 0.00 0.00 0.00 0.00 0.00 0.00 0.00 0.00 0.00 0.00 0.00 0.00 0.01 0.01 0.01 0.01 0.01 0.01 0.01 0.02 0.02 0.02 0.02 0.02 0.01 0.01 0.01 0.01 0.01 0.01 0.00 0.00 0.01 0.01 0.00 0.00 0.00 0.00 0.00 0.00 0.00
0.00 0.00 0.01 0.00 0.00 0.00 0.00 0.00 0.00 0.00 0.00 0.00 0.00 0.00 0.00 0.01 0.01 0.01 0.00 0.00 0.01 0.00 0.01 0.01 0.01 0.01 0.01 0.01 0.00 0.00 0.00 0.00 0.00 0.00 0.00 0.00 0.00 0.00 0.00 0.00 0.00 0.00 0.00 0.00
MSLP
1012.29 1012.97 1013.45 1013.67 1013.64 1013.42 1013.05 1012.63 1012.22 1011.88 1011.65 1011.53 1011.52 1011.58 1011.69 1011.84 1011.99 1012.13 1012.27 1012.38 1012.48 1012.54 1012.56 1012.52 1012.42 1012.27 1012.07 1011.86 1011.67 1011.54 1011.53 1011.66 1011.94 1012.37 1012.93 1013.59 1014.28 1014.98 1015.61 1016.16 1016.60 1016.94 1017.18 1017.35
1012.54 1013.07 1013.39 1013.47 1013.36 1013.11 1012.79 1012.47 1012.20 1012.03 1011.96 1011.97 1012.06 1012.20 1012.36 1012.54 1012.72 1012.92 1013.11 1013.31 1013.49 1013.62 1013.69 1013.66 1013.53 1013.29 1012.96 1012.60 1012.26 1011.99 1011.86 1011.90 1012.14 1012.56 1013.15 1013.83 1014.56 1015.27 1015.92 1016.46 1016.89 1017.21 1017.43 1017.59
1012.62 1012.98 1013.13 1013.08 1012.90 1012.66 1012.41 1012.23 1012.14 1012.16 1012.26 1012.41 1012.60 1012.79 1012.98 1013.17 1013.36 1013.57 1013.82 1014.08 1014.34 1014.56 1014.69 1014.70 1014.57 1014.29 1013.89 1013.42 1012.95 1012.56 1012.33 1012.31 1012.50 1012.91 1013.50 1014.21 1014.96 1015.69 1016.35 1016.89 1017.32 1017.63 1017.84 1017.98
1012.56 1012.75 1012.74 1012.59 1012.37 1012.16 1012.03 1012.01 1012.12 1012.34 1012.61 1012.90 1013.18 1013.41 1013.60 1013.76 1013.94 1014.14 1014.40 1014.71 1015.04 1015.34 1015.55 1015.63 1015.53 1015.25 1014.82 1014.29 1013.75 1013.28 1012.98 1012.89 1013.05 1013.44 1014.03 1014.74 1015.51 1016.26 1016.92 1017.47 1017.90 1018.20 1018.41 1018.56
1012.43 1012.46 1012.33 1012.10 1011.88 1011.74 1011.74 1011.91 1012.22 1012.63 1013.07 1013.49 1013.83 1014.09 1014.26 1014.38 1014.51 1014.68 1014.94 1015.27 1015.64 1016.01 1016.31 1016.46 1016.42 1016.18 1015.76 1015.22 1014.65 1014.14 1013.79 1013.67 1013.79 1014.16 1014.73 1015.43 1016.20 1016.95 1017.62 1018.18 1018.61 1018.92 1019.13 1019.28
1012.29 1012.20 1011.99 1011.73 1011.54 1011.50 1011.64 1011.99 1012.49 1013.07 1013.66 1014.18 1014.57 1014.83 1014.97 1015.04 1015.11 1015.24 1015.47 1015.80 1016.21 1016.63 1017.00 1017.23 1017.27 1017.09 1016.72 1016.21 1015.66 1015.14 1014.78 1014.62 1014.71 1015.05 1015.58 1016.27 1017.01 1017.75 1018.41 1018.96 1019.40 1019.71 1019.94 1020.10
1012.20 1012.04 1011.79 1011.55 1011.42 1011.48 1011.77 1012.27 1012.93 1013.65 1014.35 1014.93 1015.35 1015.60 1015.70 1015.72 1015.74 1015.82 1016.02 1016.35 1016.78 1017.25 1017.67 1017.98 1018.10 1018.00 1017.70 1017.26 1016.74 1016.25 1015.89 1015.72 1015.78 1016.08 1016.57 1017.20 1017.90 1018.60 1019.24 1019.78 1020.21 1020.53 1020.77 1020.95
1012.18 1012.01 1011.77 1011.57 1011.53 1011.69 1012.10 1012.72 1013.49 1014.30 1015.05 1015.66 1016.09 1016.32 1016.39 1016.37 1016.35 1016.40 1016.59 1016.91 1017.36 1017.86 1018.34 1018.71 1018.91 1018.90 1018.69 1018.32 1017.87 1017.43 1017.09 1016.92 1016.95 1017.20 1017.63 1018.20 1018.83 1019.47 1020.07 1020.58 1021.00 1021.33 1021.58 1021.78
1012.23 1012.08 1011.89 1011.78 1011.83 1012.09 1012.58 1013.27 1014.08 1014.92 1015.67 1016.27 1016.68 1016.89 1016.94 1016.90 1016.87 1016.93 1017.12 1017.46 1017.92 1018.46 1018.98 1019.41 1019.67 1019.75 1019.62 1019.34 1018.98 1018.60 1018.30 1018.14 1018.16 1018.37 1018.73 1019.22 1019.77 1020.34 1020.87 1021.35 1021.74 1022.07 1022.34 1022.56
1012.29 1012.21 1012.12 1012.11 1012.25 1012.58 1013.12 1013.82 1014.62 1015.41 1016.12 1016.67 1017.03 1017.22 1017.26 1017.25 1017.25 1017.34 1017.56 1017.94 1018.44 1019.00 1019.56 1020.03 1020.36 1020.50 1020.46 1020.28 1020.00 1019.71 1019.46 1019.33 1019.35 1019.52 1019.82 1020.23 1020.70 1021.19 1021.65 1022.07 1022.44 1022.76 1023.04 1023.28
1012.34 1012.36 1012.39 1012.49 1012.71 1013.10 1013.64 1014.30 1015.02 1015.72 1016.33 1016.79 1017.10 1017.27 1017.33 1017.36 1017.42 1017.59 1017.88 1018.32 1018.86 1019.46 1020.04 1020.55 1020.91 1021.12 1021.16 1021.06 1020.88 1020.67 1020.51 1020.43 1020.46 1020.61 1020.87 1021.21 1021.60 1022.00 1022.40 1022.77 1023.11 1023.42 1023.70 1023.95
1012.35 1012.50 1012.65 1012.86 1013.16 1013.57 1014.08 1014.66 1015.26 1015.83 1016.31 1016.67 1016.92 1017.07 1017.16 1017.27 1017.43 1017.69 1018.08 1018.59 1019.19 1019.82 1020.42 1020.94 1021.33 1021.58 1021.68 1021.67 1021.58 1021.47 1021.39 1021.38 1021.45 1021.60 1021.84 1022.13 1022.46 1022.80 1023.13 1023.46 1023.76 1024.06 1024.33 1024.59
1012.34 1012.62 1012.90 1013.21 1013.57 1013.98 1014.44 1014.92 1015.38 1015.79 1016.12 1016.38 1016.57 1016.71 1016.85 1017.04 1017.32 1017.70 1018.20 1018.79 1019.44 1020.09 1020.71 1021.23 1021.63 1021.90 1022.05 1022.11 1022.11 1022.10 1022.11 1022.17 1022.29 1022.48 1022.71 1022.98 1023.26 1023.55 1023.84 1024.12 1024.40 1024.68 1024.95 1025.21
1012.35 1012.75 1013.14 1013.54 1013.95 1014.35 1014.75 1015.11 1015.43 1015.68 1015.88 1016.03 1016.16 1016.31 1016.50 1016.79 1017.18 1017.68 1018.28 1018.95 1019.65 1020.32 1020.93 1021.44 1021.83 1022.11 1022.29 1022.40 1022.48 1022.56 1022.66 1022.81 1022.99 1023.22 1023.47 1023.74 1024.00 1024.26 1024.51 1024.76 1025.01 1025.27 1025.53 1025.79
1012.43 1012.92 1013.41 1013.88 1014.32 1014.71 1015.04 1015.30 1015.48 1015.60 1015.68 1015.74 1015.83 1015.98 1016.23 1016.61 1017.11 1017.72 1018.41 1019.15 1019.88 1020.56 1021.15 1021.63 1022.00 1022.26 1022.46 1022.61 1022.74 1022.90 1023.08 1023.30 1023.56 1023.83 1024.11 1024.38 1024.64 1024.88 1025.11 1025.33 1025.56 1025.80 1026.05 1026.29
1012.62 1013.18 1013.72 1014.24 1014.70 1015.08 1015.35 1015.53 1015.61 1015.62 1015.60 1015.60 1015.66 1015.83 1016.13 1016.58 1017.17 1017.87 1018.63 1019.41 1020.16 1020.83 1021.39 1021.84 1022.17 1022.41 1022.60 1022.77 1022.95 1023.16 1023.40 1023.69 1024.00 1024.32 1024.63 1024.91 1025.17 1025.40 1025.61 1025.81 1026.02 1026.24 1026.47 1026.70
1012.92 1013.51 1014.10 1014.63 1015.10 1015.46 1015.70 1015.82 1015.83 1015.77 1015.70 1015.66 1015.71 1015.89 1016.24 1016.74 1017.40 1018.16 1018.96 1019.77 1020.52 1021.17 1021.69 1022.09 1022.39 1022.60 1022.78 1022.95 1023.14 1023.38 1023.67 1024.00 1024.35 1024.69 1025.02 1025.32 1025.57 1025.79 1025.99 1026.18 1026.37 1026.57 1026.77 1026.98
1013.32 1013.91 1014.49 1015.04 1015.50 1015.85 1016.07 1016.16 1016.14 1016.05 1015.96 1015.91 1015.97 1016.17 1016.55 1017.10 1017.79 1018.58 1019.40 1020.21 1020.94 1021.56 1022.05 1022.41 1022.67 1022.85 1023.00 1023.16 1023.36 1023.61 1023.92 1024.26 1024.62 1024.98 1025.32 1025.62 1025.87 1026.08 1026.26 1026.44 1026.61 1026.78 1026.97 1027.16
1013.74 1014.31 1014.87 1015.40 1015.86 1016.20 1016.42 1016.51 1016.50 1016.42 1016.34 1016.31 1016.39 1016.62 1017.03 1017.60 1018.31 1019.10 1019.92 1020.72 1021.42 1022.01 1022.47 1022.79 1023.01 1023.16 1023.29 1023.44 1023.63 1023.87 1024.17 1024.50 1024.86 1025.22 1025.55 1025.84 1026.08 1026.29 1026.46 1026.61 1026.77 1026.93 1027.09 1027.26
1014.12 1014.64 1015.18 1015.68 1016.13 1016.48 1016.72 1016.84 1016.87 1016.84 1016.80 1016.82 1016.94 1017.20 1017.62 1018.20 1018.91 1019.69 1020.49 1021.26 1021.93 1022.49 1022.91 1023.20 1023.40 1023.53 1023.64 1023.77 1023.93 1024.15 1024.43 1024.75 1025.09 1025.43 1025.74 1026.02 1026.25 1026.45 1026.61 1026.76 1026.90 1027.05 1027.19 1027.34
1014.38 1014.86 1015.36 1015.85 1016.30 1016.67 1016.94 1017.12 1017.21 1017.26 1017.29 1017.38 1017.55 1017.85 1018.30 1018.88 1019.57 1020.33 1021.09 1021.82 1022.46 1022.98 1023.37 1023.64 1023.81 1023.93 1024.02 1024.13 1024.27 1024.47 1024.71 1025.00 1025.32 1025.63 1025.92 1026.19 1026.41 1026.61 1026.77 1026.91 1027.05 1027.19 1027.33 1027.46
1014.49 1014.94 1015.42 1015.89 1016.35 1016.75 1017.09 1017.34 1017.53 1017.67 1017.80 1017.97 1018.21 1018.56 1019.02 1019.60 1020.27 1020.99 1021.71 1022.39 1022.98 1023.46 1023.82 1024.07 1024.23 1024.33 1024.41 1024.49 1024.61 1024.78 1025.00 1025.26 1025.54 1025.83 1026.11 1026.37 1026.59 1026.79 1026.96 1027.11 1027.25 1027.39 1027.52 1027.64
1014.46 1014.89 1015.35 1015.83 1016.31 1016.76 1017.17 1017.52 1017.81 1018.07 1018.31 1018.58 1018.90 1019.30 1019.79 1020.36 1021.01 1021.68 1022.35 1022.97 1023.51 1023.94 1024.26 1024.48 1024.62 1024.70 1024.76 1024.83 1024.93 1025.08 1025.27 1025.50 1025.77 1026.04 1026.31 1026.57 1026.80 1027.00 1027.19 1027.35 1027.51 1027.64 1027.77 1027.89
1014.33 1014.76 1015.22 1015.72 1016.23 1016.74 1017.23 1017.68 1018.09 1018.47 1018.84 1019.21 1019.61 1020.06 1020.57 1021.14 1021.75 1022.38 1022.98 1023.54 1024.01 1024.39 1024.67 1024.85 1024.96 1025.02 1025.06 1025.11 1025.20 1025.32 1025.50 1025.72 1025.97 1026.23 1026.50 1026.77 1027.01 1027.23 1027.44 1027.62 1027.78 1027.92 1028.05 1028.15
1014.17 1014.60 1015.08 1015.60 1016.15 1016.73 1017.30 1017.85 1018.38 1018.88 1019.36 1019.83 1020.31 1020.82 1021.35 1021.91 1022.48 1023.05 1023.59 1024.07 1024.47 1024.79 1025.01 1025.14 1025.22 1025.25 1025.28 1025.31 1025.38 1025.50 1025.66 1025.87 1026.12 1026.39 1026.67 1026.95 1027.21 1027.45 1027.67 1027.86 1028.03 1028.18 1028.30 1028.39
1014.02 1014.46 1014.96 1015.51 1016.11 1016.74 1017.40 1018.04 1018.67 1019.28 1019.85 1020.41 1020.96 1021.51 1022.06 1022.60 1023.14 1023.65 1024.11 1024.52 1024.84 1025.09 1025.25 1025.34 1025.37 1025.38 1025.39 1025.41 1025.48 1025.59 1025.75 1025.97 1026.22 1026.50 1026.80 1027.08 1027.36 1027.61 1027.84 1028.04 1028.21 1028.34 1028.45 1028.53
Thickness
5702 5684 5675 5683 5689 5689 5692 5692 5693 5708 5726 5721 5715 5715 5719 5726 5728 5726 5725 5725 5724 5724 5726 5731 5732 5734 5733 5732 5732 5733 5732 5733 5733 5733 5732 5729 5725 5723 5720 5720 5719 5719 5719 5718
5680 5676 5693 5701 5702 5698 5694 5690 5693 5707 5723 5720 5709 5705 5711 5716 5716 5717 5716 5715 5716 5716 5717 5719 5718 5720 5721 5719 5719 5721 5720 5720 5723 5726 5726 5724 5721 5715 5712 5711 5710 5710 5710 5710
5675 5690 5707 5704 5699 5696 5695 5690 5694 5700 5711 5713 5704 5690 5696 5700 5704 5704 5705 5706 5708 5709 5707 5706 5706 5705 5708 5709 5709 5708 5708 5711 5714 5717 5718 5716 5712 5707 5703 5700 5699 5699 5700 5699
5687 5701 5703 5699 5697 5699 5687 5705 5706 5704 5693 5684 5693 5668 5680 5687 5689 5691 5692 5694 5695 5697 5698 5697 5697 5695 5694 5696 5699 5698 5699 5702 5704 5706 5707 5706 5702 5696 5691 5688 5687 5686 5687 5688
5686 5697 5696 5694 5700 5705 5699 5711 5708 5703 5692 5681 5683 5669 5667 5678 5676 5678 5679 5681 5683 5684 5685 5685 5685 5684 5683 5686 5688 5688 5689 5690 5692 5695 5696 5694 5690 5686 5681 5679 5676 5674 5674 5674
5693 5704 5703 5702 5709 5711 5708 5701 5695 5685 5674 5663 5676 5667 5659 5666 5671 5670 5670 5671 5671 5672 5673 5672 5672 5674 5674 5674 5675 5675 5676 5677 5679 5681 5682 5682 5678 5674 5670 5667 5665 5662 5661 5661
5680 5692 5702 5706 5697 5700 5694 5669 5651 5650 5644 5651 5672 5662 5652 5663 5668 5664 5660 5659 5659 5659 5659 5659 5659 5660 5660 5660 5661 5663 5663 5662 5664 5667 5667 5667 5665 5662 5658 5654 5651 5649 5647 5646
5661 5665 5689 5698 5692 5685 5684 5670 5646 5639 5638 5646 5660 5650 5647 5656 5657 5655 5651 5649 5649 5648 5646 5646 5647 5647 5647 5646 5648 5649 5649 5648 5649 5651 5650 5651 5650 5648 5644 5640 5638 5635 5632 5630
5660 5664 5691 5699 5701 5694 5681 5671 5669 5652 5650 5640 5643 5644 5642 5647 5646 5644 5642 5640 5638 5637 5635 5634 5634 5634 5634 5634 5634 5635 5635 5635 5634 5635 5635 5634 5633 5631 5628 5625 5623 5620 5618 5616
5672 5663 5679 5692 5695 5691 5684 5677 5657 5645 5635 5629 5636 5637 5635 5634 5637 5636 5633 5630 5629 5625 5623 5623 5622 5621 5621 5621 5621 5621 5621 5620 5620 5620 5620 5618 5616 5615 5613 5610 5607 5605 5603 5601
5675 5660 5666 5676 5673 5671 5675 5668 5656 5643 5639 5626 5622 5628 5642 5638 5635 5630 5627 5623 5619 5616 5614 5612 5610 5609 5609 5609 5608 5607 5606 5606 5604 5603 5603 5602 5600 5599 5597 5595 5592 5590 5589 5588
5673 5657 5652 5663 5679 5684 5675 5666 5655 5639 5633 5630 5622 5622 5638 5636 5630 5624 5619 5614 5609 5606 5604 5602 5599 5597 5596 5595 5594 5593 5592 5590 5589 5588 5588 5587 5585 5584 5582 5580 5578 5576 5574 5573
5672 5653 5640 5645 5655 5667 5666 5666 5659 5645 5632 5626 5620 5618 5628 5626 5621 5616 5612 5607 5602 5597 5594 5591 5587 5585 5583 5582 5581 5579 5578 5576 5575 5574 5573 5572 5571 5569 5567 5566 5565 5563 5561 5558
5677 5653 5642 5637 5642 5653 5654 5659 5658 5645 5626 5624 5624 5619 5617 5615 5611 5607 5603 5599 5594 5588 5584 5580 5576 5573 5572 5570 5569 5567 5565 5564 5562 5561 5560 5558 5557 5556 5554 5553 5552 5550 5547 5545
5671 5654 5656 5655 5661 5660 5656 5654 5652 5643 5637 5626 5622 5618 5614 5610 5606 5600 5595 5589 5585 5579 5574 5570 5566 5562 5560 5558 5557 5555 5554 5552 5550 5549 5547 5545 5544 5543 5542 5540 5539 5537 5535 5532
5666 5656 5654 5651 5659 5657 5650 5649 5646 5641 5635 5627 5620 5611 5609 5604 5598 5591 5586 5582 5576 5571 5567 5562 5558 5554 5551 5549 5547 5545 5543 5541 5539 5538 5536 5534 5533 5531 5530 5528 5526 5524 5521 5519
5660 5654 5644 5639 5652 5649 5632 5639 5638 5632 5629 5624 5613 5607 5602 5594 5589 5583 5578 5573 5568 5563 5559 5554 5550 5546 5542 5540 5538 5535 5533 5531 5529 5528 5526 5524 5522 5521 5519 5518 5515 5512 5509 5508
5662 5651 5638 5636 5638 5620 5630 5645 5641 5628 5620 5619 5611 5602 5596 5589 5581 5574 5569 5564 5559 5555 5550 5545 5540 5537 5534 5531 5529 5527 5525 5523 5520 5518 5516 5514 5513 5511 5509 5507 5505 5502 5500 5498
5670 5655 5640 5629 5624 5624 5633 5637 5632 5621 5608 5609 5602 5593 5585 5579 5571 5562 5558 5555 5550 5545 5540 5535 5532 5529 5525 5523 5521 5518 5515 5514 5512 5510 5507 5505 5504 5502 5500 5498 5496 5494 5492 5490
5669 5658 5642 5632 5623 5616 5624 5637 5638 5622 5601 5602 5596 5587 5579 5574 5563 5554 5549 5545 5539 5535 5531 5527 5524 5521 5517 5514 5512 5510 5507 5505 5503 5502 5499 5498 5496 5494 5492 5491 5489 5487 5485 5482
5654 5648 5639 5629 5620 5620 5631 5637 5632 5607 5598 5598 5591 5582 5574 5567 5559 5549 5542 5536 5531 5527 5523 5519 5516 5512 5509 5507 5505 5502 5500 5498 5497 5496 5493 5491 5489 5488 5486 5484 5482 5480 5478 5475
5647 5639 5633 5625 5614 5613 5631 5630 5616 5606 5602 5594 5584 5576 5566 5558 5549 5541 5534 5528 5523 5518 5515 5512 5508 5505 5503 5501 5498 5495 5493 5492 5491 5489 5487 5485 5483 5482 5480 5477 5475 5473 5470 5468
5650 5645 5634 5626 5619 5624 5627 5621 5615 5608 5597 5587 5578 5569 5560 5551 5542 5534 5526 5521 5516 5513 5509 5506 5502 5499 5497 5495 5493 5490 5489 5488 5486 5484 5481 5479 5478 5476 5474 5471 5468 5465 5463 5460
5656 5651 5637 5626 5623 5623 5620 5616 5610 5603 5594 5584 5575 5565 5556 5546 5537 5528 5521 5515 5511 5507 5503 5500 5496 5493 5490 5489 5488 5486 5485 5484 5482 5479 5476 5474 5472 5469 5467 5465 5463 5459 5456 5454
5658 5651 5636 5625 5622 5619 5615 5611 5604 5597 5588 5578 5569 5560 5551 5542 5532 5525 5517 5511 5507 5503 5499 5495 5491 5488 5487 5485 5484 5483 5481 5480 5477 5474 5472 5470 5468 5465 5462 5459 5457 5455 5452 5451
5659 5650 5638 5629 5629 5620 5611 5608 5603 5593 5583 5574 5564 5554 5545 5538 5529 5521 5514 5508 5503 5499 5495 5491 5488 5485 5484 5482 5481 5479 5478 5476 5473 5470 5468 5465 5463 5460 5458 5455 5452 5452 5451 5449